• In Portugal
  • List of Countries
  • For 7 days
  • Water Temperature
  • Satellite Maps
  • Weather Map
  • Weather Widgets
  • user-avatar
    Login

    Hourly Weather Omaruru

    Today, 23 February, Friday

    Time Temperature Precipitation Wind Pressure Humidity
    00:00 +23°C° 0 mm 2 mps 656 mmHg 58%
    01:00 +21°C° 0 mm 2 mps 656 mmHg 59%
    02:00 +21°C° 0 mm 2 mps 656 mmHg 60%
    03:00 +21°C° 0 mm 1 mps 656 mmHg 61%
    04:00 +21°C° 0 mm 1 mps 655 mmHg 61%
    05:00 +22°C° 0 mm 1 mps 656 mmHg 59%
    06:00 +22°C° 0 mm 1 mps 656 mmHg 56%
    07:00 +23°C° 0 mm 1 mps 657 mmHg 54%
    08:00 +25°C° 0 mm 1 mps 657 mmHg 48%
    09:00 +27°C° 0 mm 1 mps 657 mmHg 43%
    10:00 +30°C° 0 mm 1 mps 658 mmHg 37%
    11:00 +31°C° 0 mm 2 mps 658 mmHg 34%
    12:00 +32°C° 0 mm 2 mps 658 mmHg 30%
    13:00 +35°C° 0 mm 3 mps 657 mmHg 27%
    14:00 +34°C° 0 mm 4 mps 657 mmHg 28%
    15:00 +34°C° 0 mm 6 mps 657 mmHg 28%
    16:00 +34°C° 0 mm 7 mps 656 mmHg 29%
    17:00 +30°C° 0 mm 7 mps 656 mmHg 34%
    18:00 +28°C° 0 mm 6 mps 656 mmHg 38%
    19:00 +26°C° 0 mm 6 mps 656 mmHg 42%
    20:00 +25°C° 0 mm 5 mps 657 mmHg 47%
    21:00 +22°C° 0 mm 4 mps 657 mmHg 51%
    22:00 +21°C° 0 mm 3 mps 657 mmHg 55%
    23:00 +21°C° 0 mm 3 mps 657 mmHg 58%

    Tomorrow, 24 February, Saturday

    Time Temperature Precipitation Wind Pressure Humidity
    00:00 +20°C° 0 mm 3 mps 657 mmHg 60%
    01:00 +20°C° 0 mm 3 mps 657 mmHg 62%
    02:00 +20°C° 0 mm 3 mps 656 mmHg 64%
    03:00 +19°C° 0 mm 2 mps 656 mmHg 66%
    04:00 +19°C° 0 mm 2 mps 656 mmHg 67%
    05:00 +19°C° 0 mm 2 mps 656 mmHg 66%
    06:00 +20°C° 0 mm 1 mps 657 mmHg 65%
    07:00 +20°C° 0 mm 1 mps 657 mmHg 64%
    08:00 +23°C° 0 mm 1 mps 658 mmHg 52%
    09:00 +26°C° 0 mm 2 mps 658 mmHg 40%
    10:00 +28°C° 0 mm 3 mps 659 mmHg 28%
    11:00 +30°C° 0 mm 3 mps 659 mmHg 25%
    12:00 +32°C° 0 mm 4 mps 659 mmHg 22%
    13:00 +34°C° 0 mm 5 mps 659 mmHg 18%
    14:00 +33°C° 0 mm 6 mps 658 mmHg 19%
    15:00 +33°C° 0 mm 7 mps 658 mmHg 19%
    16:00 +33°C° 0 mm 7 mps 658 mmHg 19%
    17:00 +30°C° 0 mm 7 mps 658 mmHg 24%
    18:00 +27°C° 0 mm 6 mps 658 mmHg 29%
    19:00 +25°C° 0 mm 5 mps 658 mmHg 33%
    20:00 +23°C° 0 mm 4 mps 658 mmHg 38%
    21:00 +22°C° 0 mm 3 mps 658 mmHg 43%
    22:00 +20°C° 0 mm 3 mps 658 mmHg 49%
    23:00 +20°C° 0 mm 2 mps 658 mmHg 52%

    Day after tomorrow, 25 February, Sunday

    Time Temperature Precipitation Wind Pressure Humidity
    00:00 +19°C° 0 mm 2 mps 658 mmHg 56%
    01:00 +18°C° 0 mm 2 mps 658 mmHg 59%
    02:00 +18°C° 0 mm 2 mps 657 mmHg 61%
    03:00 +18°C° 0 mm 1 mps 657 mmHg 64%
    04:00 +18°C° 0 mm 1 mps 657 mmHg 66%
    05:00 +18°C° 0 mm 1 mps 657 mmHg 63%
    06:00 +19°C° 0 mm 1 mps 658 mmHg 60%
    07:00 +20°C° 0 mm 1 mps 658 mmHg 57%
    08:00 +23°C° 0 mm 1 mps 659 mmHg 45%
    09:00 +25°C° 0 mm 1 mps 659 mmHg 34%
    10:00 +28°C° 0 mm 1 mps 660 mmHg 23%
    11:00 +30°C° 0 mm 2 mps 660 mmHg 20%
    12:00 +31°C° 0 mm 2 mps 660 mmHg 17%
    13:00 +34°C° 0 mm 3 mps 659 mmHg 14%
    14:00 +34°C° 0 mm 4 mps 659 mmHg 14%
    15:00 +33°C° 0 mm 5 mps 659 mmHg 15%
    16:00 +33°C° 0 mm 7 mps 658 mmHg 16%
    17:00 +30°C° 0 mm 6 mps 658 mmHg 21%
    18:00 +27°C° 0 mm 5 mps 658 mmHg 27%
    19:00 +23°C° 0 mm 5 mps 658 mmHg 33%
    20:00 +22°C° 0 mm 4 mps 658 mmHg 37%
    21:00 +21°C° 0 mm 3 mps 659 mmHg 40%
    22:00 +20°C° 0 mm 2 mps 659 mmHg 43%
    23:00 +19°C° 0 mm 2 mps 659 mmHg 43%

    26 February, Monday

    Time Temperature Precipitation Wind Pressure Humidity
    00:00 +19°C° 0 mm 2 mps 658 mmHg 43%
    01:00 +19°C° 0 mm 1 mps 658 mmHg 44%
    02:00 +19°C° 0 mm 1 mps 657 mmHg 43%
    03:00 +19°C° 0 mm 1 mps 657 mmHg 42%
    04:00 +18°C° 0 mm 1 mps 657 mmHg 41%
    05:00 +19°C° 0 mm 1 mps 658 mmHg 38%
    06:00 +20°C° 0 mm 1 mps 658 mmHg 34%
    07:00 +21°C° 0 mm 1 mps 659 mmHg 30%
    08:00 +23°C° 0 mm 1 mps 659 mmHg 25%
    09:00 +26°C° 0 mm 1 mps 660 mmHg 20%
    10:00 +28°C° 0 mm 1 mps 660 mmHg 15%
    11:00 +30°C° 0 mm 1 mps 660 mmHg 15%
    12:00 +31°C° 0 mm 2 mps 660 mmHg 15%
    13:00 +34°C° 0 mm 2 mps 659 mmHg 16%
    14:00 +34°C° 0 mm 3 mps 659 mmHg 15%
    15:00 +34°C° 0 mm 4 mps 659 mmHg 15%
    16:00 +34°C° 0 mm 5 mps 658 mmHg 14%
    17:00 +32°C° 0 mm 5 mps 658 mmHg 17%
    18:00 +28°C° 0 mm 5 mps 658 mmHg 20%
    19:00 +26°C° 0 mm 6 mps 658 mmHg 23%
    20:00 +23°C° 0 mm 4 mps 659 mmHg 28%
    21:00 +22°C° 0 mm 3 mps 659 mmHg 32%
    22:00 +21°C° 0 mm 2 mps 659 mmHg 36%
    23:00 +20°C° 0 mm 2 mps 659 mmHg 37%

    27 February, Tuesday

    Time Temperature Precipitation Wind Pressure Humidity
    00:00 +19°C° 0 mm 2 mps 658 mmHg 38%
    01:00 +20°C° 0 mm 1 mps 658 mmHg 38%
    02:00 +19°C° 0 mm 1 mps 658 mmHg 38%
    03:00 +19°C° 0 mm 1 mps 658 mmHg 37%
    04:00 +18°C° 0 mm 1 mps 657 mmHg 37%
    05:00 +19°C° 0 mm 1 mps 658 mmHg 33%
    06:00 +20°C° 0 mm 1 mps 659 mmHg 30%
    07:00 +21°C° 0 mm 1 mps 659 mmHg 27%
    08:00 +23°C° 0 mm 1 mps 660 mmHg 22%
    09:00 +26°C° 0 mm 1 mps 660 mmHg 17%
    10:00 +28°C° 0 mm 2 mps 660 mmHg 13%
    11:00 +30°C° 0 mm 2 mps 660 mmHg 12%
    12:00 +31°C° 0 mm 3 mps 660 mmHg 12%
    13:00 +33°C° 0 mm 4 mps 660 mmHg 11%
    14:00 +33°C° 0 mm 4 mps 659 mmHg 12%
    15:00 +33°C° 0 mm 5 mps 659 mmHg 12%
    16:00 +34°C° 0 mm 6 mps 659 mmHg 12%
    17:00 +30°C° 0 mm 6 mps 659 mmHg 15%
    18:00 +28°C° 0 mm 5 mps 659 mmHg 18%
    19:00 +25°C° 0 mm 5 mps 659 mmHg 22%
    20:00 +23°C° 0 mm 4 mps 659 mmHg 25%
    21:00 +22°C° 0 mm 3 mps 659 mmHg 29%
    22:00 +21°C° 0 mm 2 mps 659 mmHg 33%
    23:00 +20°C° 0 mm 2 mps 659 mmHg 34%

    28 February, Wednesday

    Time Temperature Precipitation Wind Pressure Humidity
    00:00 +20°C° 0 mm 2 mps 658 mmHg 34%
    01:00 +20°C° 0 mm 1 mps 658 mmHg 35%
    02:00 +20°C° 0 mm 1 mps 658 mmHg 35%
    03:00 +20°C° 0 mm 1 mps 658 mmHg 36%
    04:00 +20°C° 0 mm 1 mps 658 mmHg 36%
    05:00 +19°C° 0 mm 0 mps 659 mmHg 33%
    06:00 +20°C° 0 mm 0 mps 659 mmHg 31%
    07:00 +21°C° 0 mm 0 mps 660 mmHg 28%
    08:00 +25°C° 0 mm 1 mps 660 mmHg 25%
    09:00 +27°C° 0 mm 1 mps 660 mmHg 23%
    10:00 +29°C° 0 mm 1 mps 661 mmHg 20%
    11:00 +30°C° 0 mm 2 mps 660 mmHg 19%
    12:00 +31°C° 0 mm 3 mps 660 mmHg 18%
    13:00 +34°C° 0 mm 3 mps 660 mmHg 17%
    14:00 +34°C° 0 mm 5 mps 660 mmHg 17%
    15:00 +33°C° 0 mm 6 mps 659 mmHg 18%
    16:00 +33°C° 0 mm 7 mps 659 mmHg 18%
    17:00 +29°C° 0 mm 6 mps 659 mmHg 21%
    18:00 +27°C° 0 mm 6 mps 659 mmHg 25%
    19:00 +25°C° 0 mm 5 mps 659 mmHg 28%
    20:00 +23°C° 0 mm 4 mps 659 mmHg 31%
    21:00 +21°C° 0 mm 3 mps 659 mmHg 34%
    22:00 +20°C° 0 mm 3 mps 659 mmHg 37%
    23:00 +20°C° 0 mm 2 mps 658 mmHg 39%
    Show more